Wink, TX

1:13 AM CDT on July 25, 2017 (GMT -0500)
Winkler County

Weather History for KINK - December, 2012

Change the Weather History Date:

Sunday, December 9, 2012

  Actual Average Record
Temperature  
Mean Temperature 54 °F -  
Max Temperature 68 °F 61 °F 81 °F (1939)
Min Temperature 36 °F 29 °F 8 °F (1978)
Degree Days  
Heating Degree Days 12    
Growing Degree Days 4 (Base 50)    
Moisture  
Dew Point 26 °F    
Average Humidity 36    
Maximum Humidity 56    
Minimum Humidity 21    
Precipitation  
Precipitation 0.00 in - - ()
Sea Level Pressure  
Sea Level Pressure 29.86 in    
Wind  
Wind Speed 11 mph (North)    
Max Wind Speed 30 mph    
Max Gust Speed 41 mph    
Visibility 10 miles    
Events      
Averages and records for this station are not official NWS values.
T = Trace of Precipitation, MM = Missing Value Source: NWS Daily Summary

Daily Weather History Graph

Daily Weather History Graph

Search for Another Location

Airport or City:

Trip Planner

Search our weather history database for the weather conditions in past years. The results will help you decide how hot, cold, wet, or windy it might be!

Date:

Astronomy

Dec. 09, 2012 Rise Set
Actual Time 7:41 AM CST 5:49 PM CST
Civil Twilight 7:14 AM CST 6:16 PM CST
Nautical Twilight 6:44 AM CST 6:46 PM CST
Astronomical Twilight 6:14 AM CST 7:16 PM CST
Moon 3:27 AM CST (12/9) 2:48 PM CST (12/9)
Length of Visible Light 11h 01m
Length of Day
10h 07m
Waning Crescent, 18% of the Moon is Illuminated
Dec 9
Waning Crescent
Dec 13
New
Dec 19
First Quarter
Dec 28
Full
Jan 4
Last Quarter

Hourly Weather History & Observations

Time (CST) Temp. Windchill Dew Point Humidity Pressure Visibility Wind Dir Wind Speed Gust Speed Precip Events Conditions
12:53 AM 51.1 °F - 24.1 °F 35% 29.75 in 10.0 mi SW 5.8 mph - N/A   Clear
1:53 AM 53.1 °F - 25.0 °F 34% 29.74 in 10.0 mi WSW 6.9 mph - N/A   Clear
2:53 AM 46.0 °F 43.9 °F 24.1 °F 42% 29.76 in 10.0 mi NNW 4.6 mph - N/A   Clear
3:53 AM 50.0 °F - 25.0 °F 38% 29.76 in 10.0 mi WSW 6.9 mph - N/A   Clear
4:53 AM 51.1 °F - 25.0 °F 36% 29.76 in 10.0 mi WSW 5.8 mph - N/A   Clear
5:53 AM 48.2 °F - 26.6 °F 43% 29.85 in 10.0 mi West 11.5 mph - N/A   Clear
6:53 AM 46.0 °F 43.1 °F 26.1 °F 46% 29.79 in 10.0 mi WNW 5.8 mph - N/A   Clear
7:53 AM 52.0 °F - 26.1 °F 37% 29.81 in 10.0 mi West 6.9 mph - N/A   Clear
8:53 AM 53.1 °F - 27.0 °F 37% 29.83 in 10.0 mi West 8.1 mph - N/A   Clear
9:53 AM 64.0 °F - 27.0 °F 25% 29.83 in 10.0 mi WSW 17.3 mph 21.9 mph N/A   Clear
10:53 AM 68.0 °F - 27.0 °F 21% 29.83 in 10.0 mi West 17.3 mph - N/A   Clear
11:49 AM 62.6 °F - 26.6 °F 26% 29.91 in 10.0 mi NNE 20.7 mph 40.3 mph N/A   Clear
11:53 AM 62.1 °F - 28.0 °F 28% 29.83 in 10.0 mi NNE 20.7 mph 26.5 mph N/A   Clear
12:00 PM 62.6 °F - 28.4 °F 27% 29.91 in 10.0 mi NNE 20.7 mph - N/A   Clear
12:53 PM 62.1 °F - 30.9 °F 31% 29.83 in 10.0 mi NNE 13.8 mph - N/A   Clear
1:53 PM 62.1 °F - 30.0 °F 30% 29.79 in 10.0 mi NNE 15.0 mph - N/A   Clear
2:53 PM 61.0 °F - 28.0 °F 29% 29.80 in 10.0 mi NE 13.8 mph - N/A   Clear
3:53 PM 61.0 °F - 28.9 °F 30% 29.80 in 10.0 mi NE 13.8 mph - N/A   Clear
4:53 PM 57.9 °F - 30.0 °F 35% 29.79 in 10.0 mi ENE 12.7 mph - N/A   Clear
5:53 PM 55.0 °F - 33.1 °F 43% 29.83 in - NE 10.4 mph - N/A   Clear
6:53 PM 52.0 °F - 33.1 °F 49% 29.86 in - ENE 10.4 mph - N/A   Clear
7:53 PM 48.0 °F - 33.1 °F 56% 29.92 in - ENE 11.5 mph - N/A   Clear
8:53 PM 46.0 °F 39.9 °F 30.9 °F 56% 29.96 in - NE 13.8 mph - N/A   Clear
9:53 PM 42.1 °F 33.1 °F 16.0 °F 35% 30.03 in - NNE 20.7 mph - N/A   Clear
10:53 PM 39.0 °F 27.2 °F 10.9 °F 32% 30.11 in - North 29.9 mph 41.4 mph N/A   Mostly Cloudy
11:53 PM 36.0 °F 23.7 °F 10.0 °F 34% 30.19 in - North 26.5 mph 33.4 mph N/A   Overcast